User: anonymous   Login
Location: Byszew
(52.1813°N, 19.2693°E)
Time: 20:28:56
(UTC+00:00)
Language:

UNISAT 6 - Orbit

View from above orbital plane
View from above orbital plane
View from above satellite
View from above satellite

Ground track
Ground track

The orbit data is extracted from the following two-line orbital elements,

1 40012U 14033C   22178.49260760  .00000981  00000-0  14924-3 0  9993
2 40012  97.6615   5.9197 0058697 125.7243 234.9448 14.74930437431467
Epoch (UTC): 27 June 2022 11:49:21
Eccentricity: 0.0058697
inclination: 97.6615°
perigee height: 604 km
apogee height: 686 km
right ascension of ascending node: 5.9197°
argument of perigee: 125.7243°
revolutions per day: 14.74930437
mean anomaly at epoch: 234.9448°
orbit number at epoch: 43146

The dashed part of the orbit path shows where the satellite is in the earth's shadow,  

DLR